^^
Meteo Knjazevac Station Historical Data
Daily Summary for August 11, 2021 Units:  Metric    English   Both
Daily Weekly Monthly Yearly Custom
  High: Low: Average:
Temperature: 0.1 °C -0.1 °C 0 °C
Dew Point: -0.1 °C -0.2 °C -0.1 °C
Humidity: 99% 99% 99%
Wind Speed: 4.8km/h 0km/h 1.6km/h
Wind Gust: 17.7km/h - -
Wind- - South
Pressure: 1016.5 hPa 1015.1 hPa -
Precipitation: 1.27 mm    
Historical Graphs
 
 
Tabular Data for August 11, 2021
Time Temperature Dew Point Pressure Wind Wind Speed Wind Gust Humidity Rainfall Rate (Hourly) solar Conditions
00:00 -0.1 °C -0.2 °C 1016.5 hPa Calm   3.2 km/h 99% 0 mm 0 W/m2
00:10 -0.1 °C -0.2 °C 1016.5 hPa Calm   1.6 km/h 99% 0 mm 0 W/m2
00:20 -0.1 °C -0.2 °C 1016.5 hPa North 1.6 km/h 6.4 km/h 99% 0 mm 0 W/m2
00:30 -0.1 °C -0.2 °C 1015.8 hPa Calm   6.4 km/h 99% 0 mm 0 W/m2
00:40 -0.1 °C -0.2 °C 1016.1 hPa Calm   8 km/h 99% 0 mm 0 W/m2
00:50 -0.1 °C -0.2 °C 1015.1 hPa North 1.6 km/h 8 km/h 99% 0 mm 0 W/m2
01:00 -0.1 °C -0.2 °C 1015.1 hPa NNW 3.2 km/h 9.7 km/h 99% 0 mm 0 W/m2
01:10 0 °C -0.2 °C 1015.8 hPa NNW 3.2 km/h 9.7 km/h 99% 0 mm 0 W/m2
01:20 0 °C -0.1 °C 1016.1 hPa NNW 3.2 km/h 14.5 km/h 99% 0.25 mm 0 W/m2
01:30 0.1 °C -0.1 °C 1015.8 hPa NNE 1.6 km/h 14.5 km/h 99% 0.25 mm 0 W/m2
01:40 0.1 °C -0.1 °C 1015.8 hPa Calm   8 km/h 99% 0 mm 0 W/m2
01:50 0.1 °C -0.1 °C 1016.1 hPa North 1.6 km/h 17.7 km/h 99% 0 mm 0 W/m2
02:00 0.1 °C -0.1 °C 1016.5 hPa North 1.6 km/h 6.4 km/h 99% 0 mm 0 W/m2
02:10 0.1 °C -0.1 °C 1016.1 hPa NNE 1.6 km/h 9.7 km/h 99% 0 mm 0 W/m2
02:20 0.1 °C -0.1 °C 1016.1 hPa NE 4.8 km/h 14.5 km/h 99% 0.25 mm 0 W/m2
02:30 0 °C -0.1 °C 1016.1 hPa NE 1.6 km/h 12.9 km/h 99% 0.25 mm 0 W/m2
02:40 0.1 °C -0.1 °C 1016.5 hPa North 1.6 km/h 11.3 km/h 99% 0.25 mm 0 W/m2
02:50 0.1 °C -0.1 °C 1016.1 hPa North 1.6 km/h 11.3 km/h 99% 0 mm 0 W/m2
03:00 0 °C -0.1 °C 1016.5 hPa NNE 1.6 km/h 8 km/h 99% 0 mm 0 W/m2
03:10 0 °C -0.1 °C 1016.5 hPa NNW 1.6 km/h 8 km/h 99% 0 mm 0 W/m2
03:20 0 °C -0.1 °C 1016.1 hPa NNE 3.2 km/h 9.7 km/h 99% 0 mm 0 W/m2
03:30 0 °C -0.1 °C 1015.8 hPa Calm   11.3 km/h 99% 0 mm 0 W/m2
03:40 -0.1 °C -0.2 °C 1015.8 hPa Calm   9.7 km/h 99% 0 mm 0 W/m2
Knjazevac, Serbia
Compliments of Weather Underground - 2 mb